This demonstration page uses our WeatherBlox Daily Observations layout. Learn more.

38.89511, -77.03637

Hourly Observations for August 6, 2015

Temp ( °F °C ) Dew Point ( °F °C ) Humidity (%) Winds ( mph kmh ) Pressure ( in mb ) Visibility ( mi km ) Precip ( " mm )
12:52 am 00:52 Mostly Cloudy 79 26.1 60 15.6 52 52 NNW 6 9 29.98 1015 10 16.0934 0 0
1:52 am 01:52 Cloudy 79 26.1 59 15 50 50 NNW 6 9 29.98 1015 10 16.0934 0 0
2:52 am 02:52 Mostly Cloudy 78 25.6 61 16.1 56 56 N 5 7 29.98 1015 10 16.0934 0 0
3:24 am 03:24 Mostly Cloudy 77 25 61 16 57 57 NNW 5 7 29.97 1015 10 16.0934 0 0
3:52 am 03:52 Mostly Cloudy 76 24.4 61 16.1 60 60 NNW 6 9 29.97 1015 10 16.0934 0 0
4:52 am 04:52 Mostly Cloudy 75 23.9 61 16.1 62 62 N 5 7 29.97 1015 10 16.0934 0 0
5:52 am 05:52 Cloudy 77 25 58 14.4 52 52 NNE 8 13 29.96 1014 10 16.0934 0 0
6:52 am 06:52 Cloudy 76 24.4 57 13.9 52 52 NNE 12 19 29.97 1015 10 16.0934 0 0
7:52 am 07:52 Cloudy 77 25 58 14.4 52 52 NNE 7 11 30 1016 10 16.0934 0 0
9:52 am 09:52 Cloudy 80 26.7 62 16.7 54 54 NE 7 11 29.98 1015 10 16.0934 0 0
10:52 am 10:52 Cloudy 82 27.8 63 17.2 53 53 NE 7 11 29.98 1015 10 16.0934 0 0
11:52 am 11:52 Cloudy 84 28.9 63 17.2 49 49 VRB 5 7 29.97 1015 10 16.0934 0 0
12:52 pm 12:52 Cloudy 83 28.3 62 16.7 49 49 ENE 3 6 29.96 1015 10 16.0934 0 0
1:52 pm 13:52 Cloudy 84 28.9 60 15.6 44 44 NE 3 6 29.95 1014 10 16.0934 0 0
2:52 pm 14:52 Cloudy 83 28.3 60 15.6 46 46 ENE 3 6 29.93 1014 10 16.0934 0 0.0254
3:52 pm 15:52 Cloudy 85 29.4 61 16.1 45 45 NE 6 9 29.93 1013 9 14.48406 0 0
4:14 pm 16:14 Cloudy 84 29 61 16 45 45 N 7 11 29.94 1014 10 16.0934 0 0
4:52 pm 16:52 Cloudy with Light Rain 82 27.8 65 18.3 56 56 NNW 14 22 29.91 1013 10 16.0934 0 0.0254
5:52 pm 17:52 Cloudy 81 27.2 62 16.7 53 53 N 13 20 29.9 1013 10 16.0934 0 0.0254
6:52 pm 18:52 Cloudy 81 27.2 59 15 47 47 NNE 8 13 29.89 1012 10 16.0934 0 0
7:52 pm 19:52 Cloudy 80 26.7 61 16.1 52 52 NNE 8 13 29.89 1012 10 16.0934 0 0
8:52 pm 20:52 Cloudy 79 26.1 63 17.2 58 58 NNE 8 13 29.88 1012 10 16.0934 0 0.0254
9:52 pm 21:52 Cloudy 79 26.1 64 17.8 60 60 NE 5 7 29.91 1013 10 16.0934 0 0
10:06 pm 22:06 Cloudy 79 26 63 17 58 58 N 8 13 29.91 1013 10 16.0934 0 0
10:52 pm 22:52 Cloudy 78 25.6 64 17.8 62 62 NNW 8 13 29.91 1013 10 16.0934 0 0
11:52 pm 23:52 Cloudy with Light Rain 76 24.4 65 18.3 69 69 NNE 9 15 29.89 1012 10 16.0934 0 0.0254

Powered by AerisWeather